User: anonymous   Login
Location: Ostrava
(49.8330°N, 18.2830°E)
Time: 05:43:38
(UTC+02:00)
Language:

Cosmos 2221 - Orbit

View from above orbital plane
View from above orbital plane
View from above satellite
View from above satellite

Ground track
Ground track

The orbit data is extracted from the following two-line orbital elements,

1 22236U 92080A   16208.03624765  .00000290  00000-0  29328-4 0  9993
2 22236  82.5082   7.2002 0016910   7.2392 352.9066 14.87421132278835
Epoch (UTC): 26 July 2016 00:52:11
Eccentricity: 0.0016910
inclination: 82.5082°
perigee height: 594 km
apogee height: 618 km
right ascension of ascending node: 7.2002°
argument of perigee: 7.2392°
revolutions per day: 14.87421132
mean anomaly at epoch: 352.9066°
orbit number at epoch: 27883

The dashed part of the orbit path shows where the satellite is in the earth's shadow,  

DLR